Tracking 32214 objects as of 19-Nov-2025
HD Live streaming from Space Station
objects crossing your sky now

ASTRON

Track ASTRON now!
ASTRON is classified as:


NORAD ID: 13901
Int'l Code: 1983-020A
Perigee: 35,645.6 km
Apogee: 168,661.0 km
Inclination: 78.9 °
Period: 5,929.9 minutes
Semi major axis: 108524 km
RCS: 7.9432 m2 (large)
Launch date: March 23, 1983
Source: Commonwealth of Independent States (former USSR) (CIS)
Launch site: TYURATAM MISSILE AND SPACE COMPLEX (TTMTR)
Your satellite tracking list
Your tracking list is empty




NASA's NSSDC Master Catalog

Two Line Element Set (TLE):
1 13901U 83020A   25325.98119732 -.00000938  00000-0  00000-0 0  9995
2 13901  78.8913  60.1289 6128366  47.2412 358.5812  0.24283563 10646
Source of the keplerian elements: AFSPC